Regional Weather Roundup
Issued by NWS Goodland, KS

Home | Current Version | Previous Version | Graphics & Text | Print | Product List | Glossary On
Versions: 1 2 3 4 5 6 7 8 9 10 11 12 13 14 15 16 17 18 19 20 21 22 23 24 25 26 27 28 29 30 31 32 33 34 35 36 37 38 39 40 41 42 43 44 45 46 47 48 49 50
000
ASUS43 KGLD 262059
RWRGLD

GOODLAND FORECAST AREA HOURLY WEATHER ROUNDUP
NATIONAL WEATHER SERVICE GOODLAND KS
200 PM MST THU FEB 26 2015

...OFFICIAL OBSERVATIONS...

CITY           SKY/WX    TMP DP  RH WIND       PRES   REMARKS
GOODLAND KS    CLOUDY    19   6  57 NE10      30.29F WCI   7
HILL CITY KS   SUNNY     24  -3  30 N17G24    30.40F WCI  11
IMPERIAL NEB   PTSUNNY   22   1  40 NE10G17   30.31F WCI  11
MCCOOK NEB     SUNNY     25  -2  31 N9G20     30.38F
AKRON CO       CLOUDY    15   8  73 E8        30.20S
BURLINGTON CO  LGT SNOW  17   9  70 E7        30.24F
LIMON CO       LGT SNOW  14  11  87 SE9       30.13F FOG
$$

...UNOFFICIAL OBSERVATIONS...

CITY           SKY/WX    TMP DP  RH WIND       PRES   REMARKS
COLBY KS       CLOUDY    21   9  58 N16G22    30.32F WCI   7
GOVE KS          N/A     22  32 100 MISG        N/A
LENORA KS        N/A     21  32 100 S12         N/A  WCI   9
NORTON KS      SUNNY     23  -9  23 N12G22    30.38F WCI  12
SHARON SPRINGS   N/A     19  13  79 E10         N/A  WCI   7
KIT CARSON CO    N/A     18  12  77 MISG        N/A
YUMA CO          N/A     16   7  67 CALM        N/A
$$


USA.gov is the U.S. government's official web portal to all federal, state and local government web resources and services.